Regional Weather Roundup
Issued by NWS

Home | Current Version | Previous Version | Text Only | Print | Product List | Glossary On
Versions: 1 2 3 4 5 6 7 8 9 10 11 12 13 14 15 16 17 18 19 20 21 22 23 24 25 26 27 28 29 30 31 32 33 34 35 36 37 38 39 40 41 42 43 44 45 46 47 48 49 50
000
ASUS43 KDMX 271006
RWRIA

WEATHER ROUNDUP FOR IOWA
NATIONAL WEATHER SERVICE DES MOINES IA
500 AM CDT SUN MAY 27 2018

NOTE: "FAIR" INDICATES FEW OR NO CLOUDS BELOW 12,000 FEET WITH NO
SIGNIFICANT WEATHER AND/OR OBSTRUCTIONS TO VISIBILITY.

* - THESE STATIONS ARE NOT NWS STATIONS...THUS NOT UNDER NWS
QUALITY CONTROL.  THEY ALSO DO NOT REPORT WEATHER SUCH
AS PRECIPITATION OR FOG.

IAZ001>003-012>014-020>022-031>034-043>046-271100-
   NORTHWEST IOWA

CITY           SKY/WX    TMP DP  RH WIND       PRES   REMARKS
CARROLL *      CLEAR     64  55  72 CALM      29.80S
CHEROKEE *     CLEAR     60  60  99 CALM      29.80S
DENISON *      CLOUDY    63  57  82 CALM      29.82S
LE MARS *      CLEAR     64  59  82 CALM      29.78S
ORANGE CITY *  CLEAR     73  54  49 E5        29.79S
SHELDON *      CLEAR     68  52  56 SE6       29.78F
SIOUX CITY     CLEAR     68  56  65 SE5       29.78R
SPENCER        CLEAR     63  59  87 CALM      29.81R
STORM LAKE *   CLEAR     72  50  46 S8        29.81S
$$

IAZ055>058-069>071-079>083-090>094-271100-
   SOUTHWEST IOWA

CITY           SKY/WX    TMP DP  RH WIND       PRES   REMARKS
ATLANTIC *     CLEAR     64  61  88 CALM      29.81R
AUDUBON *      CLEAR     61  57  88 CALM      29.82S
CLARINDA *       N/A     64  64 100 CALM      29.83R
COUNCIL BLFS * CLEAR     75  61  60 SW6       29.80S
CRESTON *      CLEAR     70  68  94 S5        29.83R
HARLAN  *      CLOUDY    63  61  94 CALM      29.84R
LAMONI         CLEAR     71  68  90 S8        29.82R
RED OAK *      CLEAR     64  61  88 CALM      29.80S
SHENANDOAH *   CLEAR     68  63  83 CALM      29.81R
$$

IAZ047>049-059>061-072>074-084-271100-
   CENTRAL IOWA

CITY           SKY/WX    TMP DP  RH WIND       PRES   REMARKS
AMES           CLEAR     65  63  93 CALM      29.79S
ANKENY *       CLEAR     66  64  94 CALM      29.80S
BOONE *        CLEAR     70  57  64 SW6       29.79S
CHARITON *     CLEAR     72  68  88 SW8       29.81R
DES MOINES     PTCLDY    74  68  81 CALM      29.79R
GRINNELL*      CLEAR     71  66  85 CALM      29.81S
KNOXVILLE *    CLEAR     70  66  88 SW3       29.78F
MARSHALLTOWN   CLEAR     67  66  97 CALM      29.79R
NEWTON *       CLEAR     70  68  94 SE5       29.80S
PELLA *        CLEAR     71  66  85 CALM      29.81S
PERRY *        FAIR      64  54  70 CALM      29.80S
$$

IAZ004>006-015-016-023>025-035-036-271100-
   NORTH CENTRAL IOWA

CITY           SKY/WX    TMP DP  RH WIND       PRES   REMARKS
ALGONA *       CLEAR     68  57  68 S3        29.81R
CLARION *      CLEAR     68  61  77 CALM      29.81R
ESTHERVILLE    CLEAR     63  58  83 S3        29.80S
FORT DODGE *   CLEAR     63  58  83 CALM      29.81R
MASON CITY     CLEAR     64  58  80 W5        29.82R
FOREST CITY *  FAIR      59  59 100 CALM      29.81S
WEBSTER CITY * CLEAR     63  57  82 N5        29.78S
IOWA FALLS *   FAIR      66  64  94 CALM      29.81S
$$

IAZ007>011-017>019-026>030-037>042-050>054-066-271100-
   NORTHEAST IOWA

CITY           SKY/WX    TMP DP  RH WIND       PRES   REMARKS
CEDAR RAPIDS   FAIR      69  67  93 SE5       29.79S
CHARLES CITY * FAIR      66  63  88 S3        29.81R
CLINTON *        N/A     70  69  97 S6        29.83R
DECORAH *      FAIR      70  66  88 CALM      29.80R
DUBUQUE        FAIR      68  64  87 S7        29.82S
MONTICELLO *   FAIR      70  68  94 CALM      29.80S
OELWEIN *      FAIR      70  66  88 SE6       29.81R
WATERLOO       FAIR      65  65 100 CALM      29.78S
$$

IAZ064-065-067-068-078-271100-
   EAST CENTRAL IOWA

CITY           SKY/WX    TMP DP  RH WIND       PRES   REMARKS
DAVENPORT      FAIR      70  65  84 S6        29.84R
IOWA CITY      FAIR      70  66  87 CALM      29.82R
MT. PLEASANT * CLEAR     68  66  94 CALM      29.82S
MUSCATINE *    FAIR      68  66  94 CALM      29.82S
QUAD CITIES    FAIR      67  64  90 CALM      29.82R
$$

IAZ062-063-075>077-085>089-095>099-271100-
   SOUTHEAST IOWA

CITY           SKY/WX    TMP DP  RH WIND       PRES   REMARKS
BURLINGTON     CLEAR     68  66  93 CALM      29.82S
FAIRFIELD *    CLEAR     70  64  83 S7        29.81R
FORT MADISON * CLEAR     70  68  94 CALM      29.83S
KEOKUK *       CLEAR     72  70  94 CALM      29.82R
OSKALOOSA *    FAIR      68  65  90 S6        29.81R
CENTERVILLE *    N/A     68  68 100 CALM      29.83S
OTTUMWA        CLEAR     71  67  87 S6        29.80S
WASHINGTON *   CLEAR     68  68 100 S5        29.83R
$$

ABBREVIATIONS USED IN REMARKS
   TC - TEMPERATURES IN CELSIUS
  WCI - WIND CHILL INDEX
   HX - HEAT INDEX
  VSB - VISIBILITY
$$





USA.gov is the U.S. government's official web portal to all federal, state and local government web resources and services.